�N����,����,�~����,�C��,���x,�C��,����,���ϕ���,�ő�u�ԕ���,�ő厞����,���˗�,�I�_���x,�n�����x,�ő啗���N��,DTYPE
"24/01/19","00:10",0.0,8.2,98.0,1016.6,309.0,0.8,1.3,330.4,0.00,7.9,8.1,"00:00:54",1
"24/01/19","00:20",0.0,8.1,98.0,1016.6,244.7,0.7,1.0,247.1,0.00,7.8,8.1,"00:12:40",1
"24/01/19","00:30",0.0,8.1,98.0,1016.6,268.6,1.0,1.4,262.5,0.00,7.8,8.2,"00:27:20",1
"24/01/19","00:40",0.0,8.1,98.1,1016.6,292.8,0.6,1.4,260.8,0.00,7.9,7.9,"00:39:42",1
"24/01/19","00:50",0.0,7.9,98.1,1016.6,294.9,1.2,1.4,281.7,0.00,7.7,8.0,"00:40:34",1
"24/01/19","01:00",0.0,7.9,98.1,1016.8,248.8,0.5,0.5,261.5,0.00,7.7,8.0,"00:54:36",1
"24/01/19","01:10",0.0,7.9,98.2,1016.6,298.6,1.1,1.3,329.9,0.00,7.7,8.0,"01:08:42",1
"24/01/19","01:20",0.0,7.8,98.2,1016.6,307.3,1.0,1.0,330.6,0.00,7.6,8.1,"01:14:04",1
"24/01/19","01:30",0.0,7.9,98.2,1017.1,201.3,0.3,0.4,228.4,0.00,7.7,7.9,"01:22:02",1
"24/01/19","01:40",0.0,7.8,98.3,1017.1,285.1,0.8,1.0,311.3,0.00,7.6,7.8,"01:35:00",1
"24/01/19","01:50",0.0,7.8,98.3,1017.3,355.0,1.2,1.2,355.0,0.00,7.6,7.9,"01:47:20",1
"24/01/19","02:00",0.0,7.8,98.3,1017.1,297.6,1.1,1.2,311.4,0.00,7.6,8.1,"01:51:48",1
"24/01/19","02:10",0.0,7.8,98.3,1016.8,270.1,0.6,0.6,289.9,0.00,7.6,7.9,"02:06:30",1
"24/01/19","02:20",0.0,7.8,98.4,1017.1,313.2,1.0,1.0,316.1,0.00,7.6,7.8,"02:18:04",1
"24/01/19","02:30",0.0,7.8,98.3,1017.1,274.7,0.7,1.1,299.4,0.00,7.6,7.7,"02:23:26",1
"24/01/19","02:40",0.0,7.8,98.4,1017.1,296.0,1.1,1.1,296.0,0.00,7.6,7.9,"02:36:24",1
"24/01/19","02:50",0.0,7.9,98.3,1016.8,304.1,0.7,1.2,324.2,0.00,7.7,7.9,"02:45:32",1
"24/01/19","03:00",0.0,7.7,98.3,1017.1,250.6,0.8,1.0,251.7,0.00,7.5,7.8,"02:51:46",1
"24/01/19","03:10",0.0,7.9,98.5,1017.1,292.3,1.0,1.3,274.8,0.00,7.7,7.7,"03:05:56",1
"24/01/19","03:20",0.0,7.9,98.4,1016.8,306.6,0.8,1.8,313.7,0.00,7.7,8.0,"03:13:52",1
"24/01/19","03:30",0.0,8.0,98.4,1017.1,297.8,0.8,1.6,302.6,0.00,7.8,7.7,"03:21:12",1
"24/01/19","03:40",0.0,7.9,98.4,1017.1,275.0,0.7,1.4,317.6,0.00,7.7,8.0,"03:33:02",1
"24/01/19","03:50",0.0,7.7,98.4,1017.1,242.9,0.5,1.0,299.4,0.00,7.5,7.8,"03:49:58",1
"24/01/19","04:00",0.0,7.8,98.5,1017.1,280.3,0.8,1.1,292.7,0.00,7.6,7.7,"03:52:34",1
"24/01/19","04:10",0.0,7.9,98.5,1017.1,262.9,0.6,1.4,252.7,0.00,7.7,8.0,"04:09:46",1
"24/01/19","04:20",0.0,7.9,98.4,1017.1,270.4,0.7,1.1,285.1,0.00,7.7,7.7,"04:17:24",1
"24/01/19","04:30",0.0,7.9,98.5,1016.8,305.8,0.5,1.2,299.9,0.00,7.7,7.8,"04:21:10",1
"24/01/19","04:40",0.0,8.1,98.5,1017.1,305.8,1.1,1.8,262.1,0.00,7.9,7.8,"04:35:58",1
"24/01/19","04:50",0.0,8.1,98.5,1017.1,286.4,0.8,1.3,254.5,0.00,7.9,7.7,"04:44:26",1
"24/01/19","05:00",0.0,8.0,98.5,1017.3,268.3,0.7,1.1,294.9,0.00,7.8,7.8,"04:57:30",1
"24/01/19","05:10",0.0,8.2,98.5,1017.5,263.6,0.6,1.7,312.3,0.00,8.0,7.9,"05:03:50",1
"24/01/19","05:20",0.0,8.4,98.5,1017.1,284.2,0.7,1.7,320.2,0.00,8.2,7.8,"05:17:22",1
"24/01/19","05:30",0.0,8.4,98.5,1017.5,294.9,1.1,2.1,312.3,0.00,8.2,7.8,"05:21:22",1
"24/01/19","05:40",0.0,8.7,98.5,1017.8,308.7,1.6,2.8,334.3,0.00,8.5,7.7,"05:36:40",1
"24/01/19","05:50",0.0,8.9,98.5,1018.0,327.9,2.1,3.3,346.2,0.00,8.7,7.9,"05:44:38",1
"24/01/19","06:00",0.0,8.9,98.5,1018.2,322.4,1.6,2.2,325.0,0.00,8.7,7.9,"05:54:08",1
"24/01/19","06:10",0.0,8.7,98.5,1018.5,318.3,1.3,1.8,321.9,0.00,8.5,7.7,"06:09:50",1
"24/01/19","06:20",0.0,8.8,98.6,1018.5,323.6,1.8,2.5,326.4,0.00,8.6,7.8,"06:17:30",1
"24/01/19","06:30",0.0,8.7,98.5,1018.2,325.8,0.8,1.2,322.8,0.00,8.5,7.8,"06:22:04",1
"24/01/19","06:40",0.0,8.5,98.6,1019.0,298.5,1.5,1.8,310.6,0.00,8.3,7.7,"06:36:14",1
"24/01/19","06:50",0.0,8.5,98.6,1018.7,317.8,1.2,1.9,310.7,0.00,8.3,8.0,"06:48:46",1
"24/01/19","07:00",0.0,8.3,98.7,1018.7,324.4,0.8,2.2,315.0,0.00,8.1,7.8,"06:51:04",1
"24/01/19","07:10",0.0,8.3,98.7,1019.0,307.1,1.3,2.5,314.8,0.00,8.1,7.9,"07:09:46",1
"24/01/19","07:20",0.0,8.3,98.7,1019.4,300.4,1.3,2.0,323.0,0.00,8.1,7.9,"07:10:08",1
"24/01/19","07:30",0.0,8.4,98.7,1019.2,276.0,0.8,1.8,319.6,0.00,8.2,7.8,"07:22:38",1
"24/01/19","07:40",0.0,8.6,98.7,1019.7,269.8,1.3,1.9,278.6,0.00,8.4,8.0,"07:32:30",1
"24/01/19","07:50",0.0,8.6,98.7,1019.7,333.3,0.3,0.9,304.0,0.00,8.4,7.8,"07:45:30",1
"24/01/19","08:00",0.0,8.7,98.7,1020.1,311.4,1.1,1.7,316.9,0.00,8.5,7.9,"07:53:02",1
"24/01/19","08:10",0.0,8.7,98.7,1020.1,306.1,0.6,0.6,306.1,0.00,8.5,7.8,"08:08:46",1
"24/01/19","08:20",0.0,8.6,98.9,1020.1,336.9,1.7,2.8,357.0,0.00,8.5,8.0,"08:14:56",1
"24/01/19","08:30",0.0,8.7,98.7,1020.6,320.6,1.2,2.1,342.9,0.00,8.5,7.9,"08:25:14",1
"24/01/19","08:40",0.0,9.0,98.8,1020.4,297.4,1.0,1.0,297.4,0.00,8.9,8.1,"08:39:04",1
"24/01/19","08:50",0.0,8.9,98.8,1020.6,316.3,1.8,2.5,324.0,0.00,8.8,7.8,"08:46:58",1
"24/01/19","09:00",0.0,8.7,98.7,1020.8,309.3,2.5,3.6,314.2,0.00,8.5,7.9,"08:57:14",1
"24/01/19","09:10",0.0,8.7,98.6,1020.6,309.1,2.2,3.9,300.8,0.03,8.5,8.0,"09:09:24",1
"24/01/19","09:20",0.0,8.8,98.4,1020.6,314.7,2.5,5.2,324.4,0.02,8.6,7.7,"09:16:48",1
"24/01/19","09:30",0.0,8.6,98.0,1020.8,329.9,2.7,4.7,316.7,0.00,8.3,8.1,"09:22:48",1
"24/01/19","09:40",0.0,8.6,97.7,1020.8,331.6,2.5,4.7,347.6,0.01,8.3,7.8,"09:36:24",1
"24/01/19","09:50",0.0,8.5,97.7,1021.1,326.1,3.0,6.0,308.2,0.02,8.2,7.8,"09:48:02",1
"24/01/19","10:00",0.0,8.8,97.3,1021.3,306.0,2.5,3.9,303.3,0.05,8.4,7.8,"09:56:08",1
"24/01/19","10:10",0.0,9.1,96.7,1021.1,307.9,3.0,5.9,338.4,0.07,8.6,8.0,"10:00:56",1
"24/01/19","10:20",0.0,9.2,95.9,1021.3,311.9,2.7,4.2,330.7,0.05,8.6,8.2,"10:18:16",1
"24/01/19","10:30",0.0,9.5,94.7,1021.1,310.2,2.0,3.2,327.1,0.06,8.7,8.0,"10:26:24",1
"24/01/19","10:40",0.0,9.4,92.1,1021.3,307.7,2.7,5.2,308.0,0.08,8.2,8.2,"10:32:48",1
"24/01/19","10:50",0.0,9.8,88.8,1021.3,328.1,2.2,4.2,306.7,0.11,8.1,8.1,"10:40:16",1
"24/01/19","11:00",0.0,10.0,84.9,1021.3,322.9,2.5,4.7,301.9,0.13,7.6,8.2,"10:56:52",1
"24/01/19","11:10",0.0,10.0,81.6,1021.1,325.8,3.1,5.5,303.5,0.14,7.0,8.2,"11:05:44",1
"24/01/19","11:20",0.0,10.3,79.3,1021.1,336.4,2.5,4.2,339.9,0.18,6.9,8.0,"11:14:28",1
"24/01/19","11:30",0.0,10.4,77.8,1020.8,327.3,2.8,4.5,320.4,0.20,6.7,8.2,"11:29:04",1
"24/01/19","11:40",0.0,10.7,76.8,1020.6,339.5,2.7,5.1,331.3,0.31,6.8,8.2,"11:38:02",1
"24/01/19","11:50",0.0,11.0,74.8,1020.6,349.1,2.2,5.5,340.9,0.38,6.7,8.2,"11:47:54",1
"24/01/19","12:00",0.0,10.9,74.0,1020.4,330.1,2.0,3.6,304.9,0.22,6.5,8.3,"11:59:40",1
"24/01/19","12:10",0.0,10.7,73.6,1020.1,338.5,2.3,5.4,330.9,0.22,6.2,8.3,"12:00:30",1
"24/01/19","12:20",0.0,11.3,73.1,1019.9,340.5,2.1,4.4,344.8,0.34,6.7,8.4,"12:16:50",1
"24/01/19","12:30",0.0,11.4,71.9,1019.9,343.6,2.0,4.7,326.9,0.37,6.6,8.4,"12:29:16",1
"24/01/19","12:40",0.0,10.9,71.9,1020.1,326.4,3.9,6.5,325.1,0.25,6.1,8.4,"12:39:34",1
"24/01/19","12:50",0.0,10.9,72.6,1019.7,328.3,5.2,6.5,331.9,0.27,6.2,8.5,"12:48:10",1
"24/01/19","13:00",0.0,11.1,72.1,1019.7,329.4,4.2,8.9,317.4,0.40,6.3,8.7,"12:55:06",1
"24/01/19","13:10",0.0,11.3,70.2,1019.7,0.8,2.0,3.5,25.5,0.42,6.1,8.4,"13:03:20",1
"24/01/19","13:20",0.0,11.2,69.2,1019.7,333.5,3.6,8.8,331.9,0.49,5.8,8.5,"13:19:52",1
"24/01/19","13:30",0.0,11.3,68.9,1019.2,320.2,4.2,7.1,337.9,0.43,5.8,8.7,"13:20:38",1
"24/01/19","13:40",0.0,11.1,68.7,1019.2,328.1,3.6,6.4,327.1,0.34,5.6,8.5,"13:31:16",1
"24/01/19","13:50",0.0,10.8,69.2,1019.0,332.7,4.9,8.1,324.9,0.27,5.4,8.8,"13:43:28",1
"24/01/19","14:00",0.0,11.4,68.1,1019.2,328.1,4.2,7.5,325.5,0.42,5.8,9.0,"13:53:52",1
"24/01/19","14:10",0.0,11.6,67.1,1019.4,348.1,2.7,6.8,328.1,0.37,5.7,9.0,"14:09:22",1
"24/01/19","14:20",0.0,11.5,68.3,1019.2,334.4,3.6,8.2,326.5,0.38,5.9,9.0,"14:14:40",1
"24/01/19","14:30",0.0,11.2,67.6,1019.0,332.6,3.2,8.3,307.7,0.35,5.5,9.1,"14:29:36",1
"24/01/19","14:40",0.0,11.3,69.2,1019.2,328.5,3.2,6.3,314.1,0.34,5.9,9.3,"14:30:32",1
"24/01/19","14:50",0.0,11.2,68.1,1019.7,328.6,2.8,7.4,331.6,0.32,5.6,9.2,"14:46:26",1
"24/01/19","15:00",0.0,10.6,67.3,1019.4,328.6,4.0,7.5,335.3,0.29,4.8,9.3,"14:57:06",1
"24/01/19","15:10",0.2,10.6,67.7,1019.4,330.7,4.1,10.5,325.1,0.27,4.9,9.5,"15:00:42",1
"24/01/19","15:20",0.0,10.7,67.6,1019.7,343.7,2.8,5.9,316.4,0.24,5.0,9.5,"15:15:46",1
"24/01/19","15:30",0.0,10.8,66.4,1019.4,341.2,3.0,5.7,331.4,0.22,4.8,9.4,"15:29:30",1
"24/01/19","15:40",0.0,10.7,65.7,1019.7,340.1,2.7,6.8,324.6,0.19,4.6,9.4,"15:37:44",1
"24/01/19","15:50",0.0,10.7,65.3,1019.7,356.0,2.1,3.9,341.2,0.16,4.5,9.1,"15:41:38",1
"24/01/19","16:00",0.0,10.2,66.2,1020.1,331.5,3.1,4.3,343.3,0.08,4.2,9.5,"15:50:50",1
"24/01/19","16:10",0.0,9.8,67.7,1019.9,330.8,3.0,5.1,343.9,0.06,4.2,9.4,"16:08:48",1
"24/01/19","16:20",0.0,9.6,68.9,1019.9,337.0,3.1,4.9,346.2,0.06,4.2,9.3,"16:14:20",1
"24/01/19","16:30",0.0,9.3,69.8,1019.7,333.5,4.4,7.9,300.8,0.05,4.1,9.5,"16:23:56",1
"24/01/19","16:40",0.0,9.0,70.9,1019.7,338.0,3.9,6.4,338.3,0.04,4.0,9.4,"16:36:34",1
"24/01/19","16:50",0.0,9.0,71.4,1019.7,337.0,4.5,8.8,331.8,0.03,4.1,9.5,"16:46:42",1
"24/01/19","17:00",0.0,8.7,72.2,1019.7,338.3,4.1,8.0,347.7,0.01,4.0,9.4,"16:56:56",1
"24/01/19","17:10",0.0,8.5,72.9,1019.7,333.3,4.4,8.1,342.6,0.00,4.0,9.3,"17:06:08",1
"24/01/19","17:20",0.0,8.3,73.8,1020.1,336.0,4.1,7.8,320.8,0.00,3.9,9.3,"17:12:16",1
"24/01/19","17:30",0.0,8.0,74.8,1019.9,330.7,3.6,6.0,322.8,0.00,3.8,9.3,"17:20:02",1
"24/01/19","17:40",0.0,7.9,75.4,1019.7,331.1,4.4,10.0,325.6,0.00,3.9,9.3,"17:36:18",1
"24/01/19","17:50",0.0,7.8,75.7,1020.1,327.7,4.6,7.7,337.6,0.00,3.8,9.2,"17:44:48",1
"24/01/19","18:00",0.0,7.7,76.0,1019.9,330.3,4.4,7.3,309.0,0.00,3.8,9.2,"17:55:28",1
"24/01/19","18:10",0.0,7.5,76.4,1019.9,329.6,4.4,7.8,341.9,0.00,3.7,9.3,"18:04:00",1
"24/01/19","18:20",0.0,7.5,76.7,1020.4,327.8,5.1,8.1,348.5,0.00,3.7,9.2,"18:11:48",1
"24/01/19","18:30",0.0,7.5,76.8,1020.4,326.9,4.7,8.2,336.9,0.00,3.7,9.3,"18:26:32",1
"24/01/19","18:40",0.0,7.4,76.8,1020.6,320.6,5.0,7.4,333.1,0.00,3.6,9.1,"18:34:00",1
"24/01/19","18:50",0.0,7.3,77.1,1020.1,322.4,4.1,6.3,338.9,0.00,3.6,9.0,"18:48:00",1
"24/01/19","19:00",0.0,7.2,77.3,1020.8,325.7,3.7,7.8,319.5,0.00,3.5,9.2,"18:58:32",1
"24/01/19","19:10",0.0,7.1,77.8,1021.1,325.3,3.5,5.6,338.9,0.00,3.5,8.8,"19:09:28",1
"24/01/19","19:20",0.0,7.0,78.2,1020.4,329.1,3.4,5.2,320.0,0.00,3.5,9.1,"19:19:36",1
"24/01/19","19:30",0.0,6.9,78.7,1020.8,330.9,3.1,5.2,17.7,0.00,3.5,8.8,"19:24:24",1
"24/01/19","19:40",0.0,6.8,79.1,1020.8,327.2,2.8,4.1,316.6,0.00,3.5,9.0,"19:38:00",1
"24/01/19","19:50",0.0,6.7,79.4,1021.1,316.8,2.3,3.7,321.1,0.00,3.4,9.0,"19:43:36",1
"24/01/19","20:00",0.0,6.5,79.7,1020.8,306.4,2.1,3.1,302.5,0.00,3.3,8.7,"19:54:40",1
"24/01/19","20:10",0.0,6.3,80.2,1020.6,327.0,1.3,2.2,329.0,0.00,3.2,8.7,"20:03:36",1
"24/01/19","20:20",0.0,5.7,80.8,1020.6,279.0,1.5,2.6,268.6,0.00,2.7,8.7,"20:12:00",1
"24/01/19","20:30",0.0,5.3,81.3,1020.6,295.2,1.3,2.4,316.4,0.00,2.4,8.7,"20:22:16",1
"24/01/19","20:40",0.0,5.3,82.4,1021.1,340.3,0.8,1.9,306.3,0.00,2.6,8.6,"20:30:52",1
"24/01/19","20:50",0.0,5.2,83.7,1020.8,332.6,2.0,3.2,338.7,0.00,2.7,8.4,"20:48:58",1
"24/01/19","21:00",0.0,4.8,84.9,1021.1,317.5,2.0,2.7,335.6,0.00,2.5,8.6,"20:50:48",1
"24/01/19","21:10",0.0,4.7,86.0,1020.6,309.0,1.7,2.2,345.5,0.00,2.6,8.5,"21:05:12",1
"24/01/19","21:20",0.0,4.1,87.1,1020.6,265.4,0.8,2.5,318.8,0.00,2.2,8.4,"21:10:42",1
"24/01/19","21:30",0.0,4.3,88.2,1020.8,281.4,1.3,2.5,316.4,0.00,2.6,8.5,"21:27:14",1
"24/01/19","21:40",0.0,3.9,88.9,1020.8,328.7,2.1,2.9,333.9,0.00,2.3,8.3,"21:35:26",1
"24/01/19","21:50",0.0,3.7,89.6,1020.6,313.5,1.2,2.6,351.7,0.00,2.2,8.2,"21:46:18",1
"24/01/19","22:00",0.0,3.6,90.2,1020.8,295.8,1.5,1.9,305.2,0.00,2.2,8.4,"21:54:10",1
"24/01/19","22:10",0.0,3.8,90.8,1020.6,326.9,1.3,2.2,336.5,0.00,2.5,8.2,"22:03:06",1
"24/01/19","22:20",0.0,3.5,91.1,1020.8,302.3,1.1,2.4,318.1,0.00,2.2,8.1,"22:18:32",1
"24/01/19","22:30",0.0,3.2,91.6,1020.6,315.0,1.1,2.0,311.0,0.00,2.0,8.0,"22:28:12",1
"24/01/19","22:40",0.0,2.9,92.2,1020.4,316.7,1.3,3.1,338.6,0.00,1.8,8.0,"22:35:44",1
"24/01/19","22:50",0.0,2.8,92.5,1019.9,310.8,1.3,2.8,337.3,0.00,1.7,7.9,"22:41:52",1
"24/01/19","23:00",0.0,2.9,93.1,1019.9,296.9,1.6,2.4,316.9,0.00,1.9,8.1,"22:54:10",1
"24/01/19","23:10",0.0,3.5,93.4,1020.1,288.1,1.8,2.6,312.9,0.00,2.6,7.9,"23:07:52",1
"24/01/19","23:20",0.0,3.5,93.6,1020.1,325.6,1.7,2.5,333.6,0.00,2.6,7.8,"23:17:04",1
"24/01/19","23:30",0.0,3.2,93.9,1019.9,307.2,1.6,2.2,336.2,0.00,2.4,7.8,"23:20:24",1
"24/01/19","23:40",0.0,3.0,94.3,1020.4,289.9,0.8,1.7,290.0,0.00,2.2,7.8,"23:32:48",1
"24/01/19","23:50",0.0,2.9,94.6,1020.1,306.7,1.1,2.2,311.5,0.00,2.2,7.9,"23:43:20",1
"24/01/19","24:00",0.0,2.8,94.7,1020.4,278.8,1.1,1.4,310.2,0.00,2.1,7.8,"23:58:08",1
